This is the latest recevied weather packets stored in our database for station/object N1SU-13. If no packets are shown the sender has not sent any weather packets the latest 10 day(s).
| Time | Temp. | Humidity | Pressure | Rain* | Wind** | Luminosity | Snow |
|---|---|---|---|---|---|---|---|
| 1777228941 | 13.33° C | 36% | 1008.5 hPa | - | - | - | - |
| 1777228336 | 13.33° C | 38% | 1008.6 hPa | - | - | - | - |
| 1777227714 | 12.78° C | 37% | 1008.6 hPa | - | - | - | - |
| 1777227093 | 12.78° C | 36% | 1008.6 hPa | - | - | - | - |
| 1777226395 | 12.22° C | 39% | 1008.6 hPa | - | - | - | - |
| 1777225754 | 11.67° C | 44% | 1008.7 hPa | - | - | - | - |
| 1777225138 | 11.11° C | 47% | 1008.8 hPa | - | - | - | - |
| 1777224550 | 11.11° C | 50% | 1008.9 hPa | - | - | - | - |
| 1777223863 | 10.56° C | 51% | 1008.9 hPa | - | - | - | - |
| 1777223220 | 10° C | 51% | 1008.9 hPa | - | - | - | - |
| 1777222588 | 9.44° C | 51% | 1008.9 hPa | - | - | - | - |
| 1777221999 | 9.44° C | 53% | 1008.9 hPa | - | - | - | - |
| 1777221331 | 8.89° C | 54% | 1008.9 hPa | - | - | - | - |
| 1777220650 | 8.33° C | 56% | 1009.1 hPa | - | - | - | - |
| 1777219952 | 7.78° C | 57% | 1009.1 hPa | - | - | - | - |
| 1777219332 | 7.78° C | 58% | 1009.1 hPa | - | - | - | - |
| 1777218646 | 7.22° C | 57% | 1009.1 hPa | - | - | - | - |
| 1777218037 | 7.22° C | 61% | 1009.1 hPa | - | - | - | - |
| 1777217418 | 6.67° C | 61% | 1009.1 hPa | - | - | - | - |
| 1777216844 | 6.11° C | 58% | 1009.1 hPa | - | - | - | - |
| 1777216207 | 6.11° C | 60% | 1009.2 hPa | - | - | - | - |
| 1777215620 | 5.56° C | 64% | 1009.1 hPa | - | - | - | - |
| 1777215546 | 5.56° C | 64% | 1009.1 hPa | - | - | - | - |
| 1777214880 | 5° C | 64% | 1009.2 hPa | - | - | - | - |
| 1777214195 | 4.44° C | 65% | 1009.1 hPa | - | - | - | - |
* Rain since midnight (hover to see other rain measurements)
** Current wind speed in m/s (hover to see current wind gust speed)